星链-35761(STARLINK-35761)

导读 | 豆包AI

STARLINK-35761是美国太空探索技术公司Starlink星座的成员,于2025年12月8日发射升空,归属美国Starlink卫星互联网组网项目。它承担低轨卫星互联网星座的组网补位任务,为全球偏远地区、海洋空域等传统网络覆盖盲区提供高速低延迟的宽带互联网接入服务,进一步拓展Starlink星座的覆盖广度与服务容量。

基本信息
目录编号:
66961
目录名称:
STARLINK-35761
国际标识:
2025-288C
轨道中心:
EARTH
卫星名称:
星链-35761
卫星全名:
星链-35761(STARLINK-35761)
卫星状态:
在轨 (已飞行96 天)
发射日期:
2025-12-08 UTC
国别 :
美国 (US)
星等 :
--
轨道信息
数据来源 国际轨道数据
星历时间: 2026-03-13T13:34:34+0800
21小时前
查看轨道信息
半长轴: 6861.065km
偏心率: 0.0001829
轨道倾角: 43.002°
近地点辐角 262.930°
升交点赤经 3.064°
平近点角 97.134°
近地点: 481.673km
远地点: 484.183km
周期: 94.264分钟
每日圈数: 15.276206
详细信息
固有亮度:
5
最大亮度:
2.5
卫星平台:
Starlink V1.0
覆盖范围:
全球
运营商:
太空探索技术公司
运营商所在国:
美国
制造商(研发单位):
太空探索技术公司
制造商所在国:
美国
使用方式:
暂无
卫星简介
Starlink 计划是 SpaceX 推出的全球卫星互联网项目,通过发射低轨道卫星,为全球尤其是偏远地区提供高速、低延迟的互联网服务。自 2019 年起,Starlink 已部署数千颗卫星,旨在缩小全球数字鸿沟,推动互联网普及。该项目还为军事、航空等行业提供通信支持,带来广泛经济效益。
2D轨道图
3D轨道图
轨道高度分析图
轨道倾角分析图
轨道综合分析图
查看轨道综合分析图